Time,TemperatureF,DewpointF,PressureIn,WindDirection,WindDirectionDegrees,WindSpeedMPH,WindSpeedGustMPH,Humidity,HourlyPrecipIn,Conditions,Clouds,dailyrainin,SoftwareType,DateUTC
2013-04-30 00:03:00,56.7,54.0,29.97,South,186,0.0,-999.0,91,-99.99,,,0.00,weatherlink.com 1.10,2013-04-30 04:03:00,
2013-04-30 00:18:00,56.3,54.0,29.97,South,186,0.0,-999.0,90,-99.99,,,0.00,weatherlink.com 1.10,2013-04-30 04:18:00,
2013-04-30 00:33:00,56.0,53.0,29.96,South,186,0.0,-999.0,90,-99.99,,,0.00,weatherlink.com 1.10,2013-04-30 04:33:00,
2013-04-30 00:48:00,55.4,53.0,29.96,South,186,0.0,-999.0,90,-99.99,,,0.00,weatherlink.com 1.10,2013-04-30 04:48:00,
2013-04-30 01:03:00,55.0,52.0,29.96,South,186,0.0,-999.0,90,-99.99,,,0.00,weatherlink.com 1.10,2013-04-30 05:03:00,
2013-04-30 01:18:00,54.6,52.0,29.97,South,186,0.0,-999.0,90,-99.99,,,0.00,weatherlink.com 1.10,2013-04-30 05:18:00,
2013-04-30 01:33:00,54.2,51.0,29.96,South,186,0.0,-999.0,90,-99.99,,,0.00,weatherlink.com 1.10,2013-04-30 05:33:00,
2013-04-30 01:48:00,53.9,51.0,29.96,South,186,0.0,-999.0,90,-99.99,,,0.00,weatherlink.com 1.10,2013-04-30 05:48:00,
2013-04-30 02:03:00,53.4,51.0,29.96,South,186,0.0,-999.0,90,-99.99,,,0.00,weatherlink.com 1.10,2013-04-30 06:03:00,
2013-04-30 02:18:00,53.2,50.0,29.96,South,186,0.0,-999.0,90,-99.99,,,0.00,weatherlink.com 1.10,2013-04-30 06:18:00,
2013-04-30 02:33:00,52.7,50.0,29.96,South,186,0.0,-999.0,90,-99.99,,,0.00,weatherlink.com 1.10,2013-04-30 06:33:00,
2013-04-30 02:48:00,52.4,50.0,29.95,South,186,0.0,-999.0,90,-99.99,,,0.00,weatherlink.com 1.10,2013-04-30 06:48:00,
2013-04-30 03:18:00,52.0,49.0,29.95,South,186,0.0,-999.0,90,-99.99,,,0.00,weatherlink.com 1.10,2013-04-30 07:18:00,
2013-04-30 03:33:00,51.8,49.0,29.95,South,186,0.0,-999.0,90,-99.99,,,0.00,weatherlink.com 1.10,2013-04-30 07:33:00,
2013-04-30 03:48:00,51.5,49.0,29.95,South,186,0.0,-999.0,90,-99.99,,,0.00,weatherlink.com 1.10,2013-04-30 07:48:00,
2013-04-30 04:03:00,51.5,49.0,29.96,South,186,0.0,-999.0,90,-99.99,,,0.00,weatherlink.com 1.10,2013-04-30 08:03:00,
2013-04-30 04:18:00,51.1,48.0,29.96,South,186,0.0,-999.0,90,-99.99,,,0.00,weatherlink.com 1.10,2013-04-30 08:18:00,
2013-04-30 04:33:00,51.0,48.0,29.96,South,186,0.0,-999.0,89,-99.99,,,0.00,weatherlink.com 1.10,2013-04-30 08:33:00,
2013-04-30 04:48:00,51.0,48.0,29.97,South,186,0.0,-999.0,89,-99.99,,,0.00,weatherlink.com 1.10,2013-04-30 08:48:00,
2013-04-30 05:03:00,51.1,48.0,29.97,South,186,0.0,-999.0,89,-99.99,,,0.00,weatherlink.com 1.10,2013-04-30 09:03:00,
2013-04-30 05:18:00,51.9,49.0,29.97,South,186,0.0,-999.0,89,-99.99,,,0.00,weatherlink.com 1.10,2013-04-30 09:18:00,
2013-04-30 05:33:00,51.2,48.0,29.97,South,186,0.0,-999.0,89,-99.99,,,0.00,weatherlink.com 1.10,2013-04-30 09:33:00,
2013-04-30 05:48:00,50.9,48.0,29.97,South,186,0.0,-999.0,89,-99.99,,,0.00,weatherlink.com 1.10,2013-04-30 09:48:00,
2013-04-30 06:03:00,50.3,47.0,29.98,South,186,0.0,-999.0,89,-99.99,,,0.00,weatherlink.com 1.10,2013-04-30 10:03:00,
2013-04-30 06:18:00,50.1,47.0,29.98,South,186,0.0,-999.0,89,-99.99,,,0.00,weatherlink.com 1.10,2013-04-30 10:18:00,
2013-04-30 06:34:00,50.1,47.0,29.98,South,186,0.0,-999.0,89,-99.99,,,0.00,weatherlink.com 1.10,2013-04-30 10:34:00,
2013-04-30 06:49:00,50.3,47.0,29.99,South,186,0.0,-999.0,89,-99.99,,,0.00,weatherlink.com 1.10,2013-04-30 10:49:00,
2013-04-30 07:04:00,50.3,47.0,30.00,South,186,0.0,-999.0,89,-99.99,,,0.00,weatherlink.com 1.10,2013-04-30 11:04:00,
2013-04-30 07:19:00,50.4,47.0,30.00,South,186,0.0,-999.0,89,-99.99,,,0.00,weatherlink.com 1.10,2013-04-30 11:19:00,
2013-04-30 07:34:00,50.8,48.0,30.01,South,186,0.0,-999.0,89,-99.99,,,0.00,weatherlink.com 1.10,2013-04-30 11:34:00,
2013-04-30 07:49:00,51.6,49.0,30.02,South,186,0.0,-999.0,89,-99.99,,,0.00,weatherlink.com 1.10,2013-04-30 11:49:00,
2013-04-30 08:04:00,52.8,50.0,30.02,South,186,0.0,-999.0,90,-99.99,,,0.00,weatherlink.com 1.10,2013-04-30 12:04:00,
2013-04-30 08:19:00,54.4,52.0,30.03,SW,220,0.0,-999.0,90,-99.99,,,0.00,weatherlink.com 1.10,2013-04-30 12:19:00,
2013-04-30 08:34:00,55.7,53.0,30.03,ESE,117,0.0,-999.0,90,-99.99,,,0.00,weatherlink.com 1.10,2013-04-30 12:34:00,
2013-04-30 08:49:00,56.2,53.0,30.03,ESE,113,0.0,-999.0,90,-99.99,,,0.00,weatherlink.com 1.10,2013-04-30 12:49:00,
2013-04-30 09:04:00,57.6,55.0,30.03,ESE,123,0.0,-999.0,90,-99.99,,,0.00,weatherlink.com 1.10,2013-04-30 13:04:00,
2013-04-30 09:19:00,58.2,55.0,30.04,ESE,108,0.0,-999.0,89,-99.99,,,0.00,weatherlink.com 1.10,2013-04-30 13:19:00,
2013-04-30 09:34:00,59.5,56.0,30.04,SE,131,0.0,-999.0,89,-99.99,,,0.00,weatherlink.com 1.10,2013-04-30 13:34:00,
2013-04-30 09:49:00,60.0,57.0,30.04,ESE,108,0.0,-999.0,91,-99.99,,,0.00,weatherlink.com 1.10,2013-04-30 13:49:00,
2013-04-30 10:04:00,62.0,60.0,30.03,SE,143,0.0,-999.0,92,-99.99,,,0.00,weatherlink.com 1.10,2013-04-30 14:04:00,
2013-04-30 10:19:00,64.4,60.0,30.03,ENE,78,0.0,-999.0,85,-99.99,,,0.00,weatherlink.com 1.10,2013-04-30 14:19:00,
2013-04-30 10:34:00,65.7,60.0,30.04,ENE,71,0.0,-999.0,82,-99.99,,,0.00,weatherlink.com 1.10,2013-04-30 14:34:00,
2013-04-30 10:49:00,66.9,59.0,30.04,SE,145,0.0,-999.0,76,-99.99,,,0.00,weatherlink.com 1.10,2013-04-30 14:49:00,
2013-04-30 11:04:00,67.7,61.0,30.03,ESE,121,0.0,-999.0,78,-99.99,,,0.00,weatherlink.com 1.10,2013-04-30 15:04:00,
2013-04-30 11:19:00,68.1,60.0,30.04,SSE,167,0.0,-999.0,76,-99.99,,,0.00,weatherlink.com 1.10,2013-04-30 15:19:00,
2013-04-30 11:34:00,68.8,60.0,30.03,SSE,157,0.0,-999.0,74,-99.99,,,0.00,weatherlink.com 1.10,2013-04-30 15:34:00,
2013-04-30 11:49:00,69.9,61.0,30.03,SSW,209,5.0,-999.0,73,-99.99,,,0.00,weatherlink.com 1.10,2013-04-30 15:49:00,
2013-04-30 12:04:00,70.1,59.0,30.03,SE,124,4.0,-999.0,68,-99.99,,,0.00,weatherlink.com 1.10,2013-04-30 16:04:00,
2013-04-30 12:19:00,71.4,56.0,30.02,SE,124,7.0,-999.0,58,-99.99,,,0.00,weatherlink.com 1.10,2013-04-30 16:19:00,
2013-04-30 12:34:00,71.3,57.0,30.02,SSE,165,0.0,-999.0,61,-99.99,,,0.00,weatherlink.com 1.10,2013-04-30 16:34:00,
2013-04-30 12:49:00,72.1,55.0,30.02,South,188,0.0,-999.0,56,-99.99,,,0.00,weatherlink.com 1.10,2013-04-30 16:49:00,
2013-04-30 13:04:00,72.4,55.0,30.02,SSE,150,0.0,-999.0,55,-99.99,,,0.00,weatherlink.com 1.10,2013-04-30 17:04:00,
2013-04-30 13:19:00,72.4,57.0,30.02,SSW,199,7.0,-999.0,59,-99.99,,,0.00,weatherlink.com 1.10,2013-04-30 17:19:00,
2013-04-30 13:34:00,72.4,57.0,30.02,SE,141,4.0,-999.0,59,-99.99,,,0.00,weatherlink.com 1.10,2013-04-30 17:34:00,
2013-04-30 13:49:00,73.1,57.0,30.01,WSW,248,4.0,-999.0,58,-99.99,,,0.00,weatherlink.com 1.10,2013-04-30 17:49:00,
2013-04-30 14:04:00,73.3,57.0,30.01,SW,219,0.0,-999.0,56,-99.99,,,0.00,weatherlink.com 1.10,2013-04-30 18:04:00,
2013-04-30 14:19:00,73.9,57.0,30.00,SW,221,4.0,-999.0,55,-99.99,,,0.00,weatherlink.com 1.10,2013-04-30 18:19:00,
2013-04-30 14:34:00,74.1,58.0,30.00,ESE,122,0.0,-999.0,57,-99.99,,,0.00,weatherlink.com 1.10,2013-04-30 18:34:00,
2013-04-30 14:49:00,74.4,56.0,30.01,SSW,202,0.0,-999.0,53,-99.99,,,0.00,weatherlink.com 1.10,2013-04-30 18:49:00,
2013-04-30 15:04:00,75.1,56.0,30.00,SSW,212,0.0,-999.0,52,-99.99,,,0.00,weatherlink.com 1.10,2013-04-30 19:04:00,
2013-04-30 15:19:00,75.1,55.0,30.00,SW,227,4.0,-999.0,49,-99.99,,,0.00,weatherlink.com 1.10,2013-04-30 19:19:00,
2013-04-30 15:34:00,75.9,55.0,30.00,WSW,244,0.0,-999.0,49,-99.99,,,0.00,weatherlink.com 1.10,2013-04-30 19:34:00,
2013-04-30 15:49:00,76.7,55.0,29.99,SSW,198,5.0,-999.0,48,-99.99,,,0.00,weatherlink.com 1.10,2013-04-30 19:49:00,
2013-04-30 16:04:00,76.5,54.0,29.98,SSW,212,0.0,-999.0,46,-99.99,,,0.00,weatherlink.com 1.10,2013-04-30 20:04:00,
2013-04-30 16:19:00,77.0,56.0,29.98,SE,142,5.0,-999.0,48,-99.99,,,0.00,weatherlink.com 1.10,2013-04-30 20:19:00,
2013-04-30 16:34:00,76.8,55.0,29.97,SE,143,4.0,-999.0,47,-99.99,,,0.00,weatherlink.com 1.10,2013-04-30 20:34:00,
2013-04-30 16:49:00,77.1,56.0,29.97,SE,135,0.0,-999.0,48,-99.99,,,0.00,weatherlink.com 1.10,2013-04-30 20:49:00,
2013-04-30 17:04:00,77.1,55.0,29.97,South,188,4.0,-999.0,47,-99.99,,,0.00,weatherlink.com 1.10,2013-04-30 21:04:00,
2013-04-30 17:19:00,76.6,54.0,29.98,SSE,148,4.0,-999.0,46,-99.99,,,0.00,weatherlink.com 1.10,2013-04-30 21:19:00,
2013-04-30 17:34:00,76.8,56.0,29.98,SE,144,2.0,-999.0,48,-99.99,,,0.00,weatherlink.com 1.10,2013-04-30 21:34:00,
2013-04-30 17:49:00,76.9,56.0,29.98,ESE,111,0.0,-999.0,48,-99.99,,,0.00,weatherlink.com 1.10,2013-04-30 21:49:00,
2013-04-30 18:04:00,76.8,54.0,29.98,South,180,4.0,-999.0,46,-99.99,,,0.00,weatherlink.com 1.10,2013-04-30 22:04:00,
2013-04-30 18:19:00,76.2,56.0,29.98,SSW,197,0.0,-999.0,49,-99.99,,,0.00,weatherlink.com 1.10,2013-04-30 22:19:00,
2013-04-30 18:34:00,76.4,56.0,29.98,SSE,156,0.0,-999.0,49,-99.99,,,0.00,weatherlink.com 1.10,2013-04-30 22:34:00,
2013-04-30 18:49:00,76.5,55.0,29.98,SE,134,1.0,-999.0,48,-99.99,,,0.00,weatherlink.com 1.10,2013-04-30 22:49:00,
2013-04-30 19:04:00,76.1,56.0,29.98,SE,139,0.0,-999.0,50,-99.99,,,0.00,weatherlink.com 1.10,2013-04-30 23:04:00,
2013-04-30 19:19:00,75.7,56.0,29.97,SE,140,0.0,-999.0,51,-99.99,,,0.00,weatherlink.com 1.10,2013-04-30 23:19:00,
2013-04-30 19:34:00,75.3,56.0,29.98,SE,140,0.0,-999.0,52,-99.99,,,0.00,weatherlink.com 1.10,2013-04-30 23:34:00,
2013-04-30 19:50:00,74.8,60.0,29.97,SE,140,0.0,-999.0,60,-99.99,,,0.00,weatherlink.com 1.10,2013-04-30 23:50:00,
2013-04-30 20:05:00,73.8,60.0,29.98,SE,140,0.0,-999.0,62,-99.99,,,0.00,weatherlink.com 1.10,2013-05-01 00:05:00,
2013-04-30 20:20:00,72.2,59.0,29.98,SE,140,0.0,-999.0,64,-99.99,,,0.00,weatherlink.com 1.10,2013-05-01 00:20:00,
2013-04-30 20:35:00,70.4,60.0,29.99,SE,140,0.0,-999.0,70,-99.99,,,0.00,weatherlink.com 1.10,2013-05-01 00:35:00,
2013-04-30 20:50:00,69.1,59.0,30.00,SE,140,0.0,-999.0,71,-99.99,,,0.00,weatherlink.com 1.10,2013-05-01 00:50:00,
2013-04-30 21:05:00,68.0,60.0,30.00,SE,140,0.0,-999.0,75,-99.99,,,0.00,weatherlink.com 1.10,2013-05-01 01:05:00,
2013-04-30 21:20:00,66.7,59.0,30.00,SE,140,0.0,-999.0,76,-99.99,,,0.00,weatherlink.com 1.10,2013-05-01 01:20:00,
2013-04-30 21:35:00,65.7,59.0,30.00,SE,140,0.0,-999.0,79,-99.99,,,0.00,weatherlink.com 1.10,2013-05-01 01:35:00,
2013-04-30 21:50:00,65.3,59.0,30.01,SE,140,0.0,-999.0,81,-99.99,,,0.00,weatherlink.com 1.10,2013-05-01 01:50:00,
2013-04-30 22:05:00,64.9,59.0,30.02,SE,140,0.0,-999.0,82,-99.99,,,0.00,weatherlink.com 1.10,2013-05-01 02:05:00,
2013-04-30 22:20:00,65.0,59.0,30.02,SE,139,0.0,-999.0,80,-99.99,,,0.00,weatherlink.com 1.10,2013-05-01 02:20:00,
2013-04-30 22:35:00,65.7,58.0,30.03,SE,139,0.0,-999.0,77,-99.99,,,0.00,weatherlink.com 1.10,2013-05-01 02:35:00,
2013-04-30 22:50:00,66.5,59.0,30.03,SE,139,0.0,-999.0,77,-99.99,,,0.00,weatherlink.com 1.10,2013-05-01 02:50:00,
2013-04-30 23:05:00,65.8,59.0,30.03,SE,139,0.0,-999.0,78,-99.99,,,0.00,weatherlink.com 1.10,2013-05-01 03:05:00,
2013-04-30 23:20:00,67.0,58.0,30.03,SE,136,0.0,-999.0,73,-99.99,,,0.00,weatherlink.com 1.10,2013-05-01 03:20:00,
2013-04-30 23:35:00,68.0,58.0,30.03,SE,139,0.0,-999.0,70,-99.99,,,0.00,weatherlink.com 1.10,2013-05-01 03:35:00,
2013-04-30 23:50:00,68.0,58.0,30.04,South,177,1.0,-999.0,71,-99.99,,,0.00,weatherlink.com 1.10,2013-05-01 03:50:00,